,,,PA_Meas_PMT16A,,PR_Meas_QMR101_102,,RH_Meas_QMH101,,SR_Meas_QMS101,,TA_Meas_QMH101,,GenWind,,GenWind,
date,time,status,PA,status,PR,status,RH,status,SR,status,TA,status,DirAvg,status,SpdAvg,
2012-06-05, 00:00:04,VALID,1004.76,VALID,0,VALID,89.9521,VALID,0.0815089,VALID,24.9671,VALID,325,VALID,0.451562,
2012-06-05, 00:01:04,VALID,1004.75,VALID,0,VALID,89.4486,VALID,0,VALID,24.9866,VALID,342,VALID,0.821875,
2012-06-05, 00:02:04,VALID,1004.75,VALID,0,VALID,89.1435,VALID,0,VALID,25.006,VALID,329,VALID,0.545313,
2012-06-05, 00:03:04,VALID,1004.77,VALID,0,VALID,88.9833,VALID,0,VALID,25.006,VALID,348,VALID,0.269531,
2012-06-05, 00:04:04,VALID,1004.76,VALID,0,VALID,88.6094,VALID,0,VALID,25.045,VALID,349,VALID,0.447656,
2012-06-05, 00:05:04,VALID,1004.73,VALID,0,VALID,88.2433,VALID,0,VALID,25.0663,VALID,327,VALID,0.526563,
2012-06-05, 00:06:04,VALID,1004.75,VALID,0,VALID,88.022,VALID,0,VALID,25.0644,VALID,355,VALID,0.725391,
2012-06-05, 00:07:04,VALID,1004.74,VALID,0,VALID,87.7932,VALID,0,VALID,25.0858,VALID,280,VALID,0.292188,
2012-06-05, 00:08:04,VALID,1004.72,VALID,0,VALID,87.5109,VALID,0,VALID,25.0644,VALID,349,VALID,0.830859,
2012-06-05, 00:09:04,VALID,1004.74,VALID,0,VALID,87.4727,VALID,0,VALID,25.0839,VALID,331,VALID,0.363672,
2012-06-05, 00:10:04,VALID,1004.74,VALID,0,VALID,87.488,VALID,0,VALID,25.0839,VALID,331,VALID,0,
2012-06-05, 00:11:04,VALID,1004.74,VALID,0,VALID,87.0684,VALID,0.0815089,VALID,25.0644,VALID,353,VALID,1.31641,
2012-06-05, 00:12:04,VALID,1004.74,VALID,0,VALID,87.0913,VALID,0.0815089,VALID,25.0644,VALID,347,VALID,0.801562,
2012-06-05, 00:13:04,VALID,1004.72,VALID,0,VALID,87.1066,VALID,0,VALID,25.0625,VALID,350,VALID,0.755078,
2012-06-05, 00:14:04,VALID,1004.7,VALID,0,VALID,87.1676,VALID,0,VALID,25.1072,VALID,55,VALID,0.308203,
2012-06-05, 00:15:04,VALID,1004.68,VALID,0,VALID,87.0379,VALID,0.0815089,VALID,25.0858,VALID,340,VALID,0.519141,
2012-06-05, 00:16:04,VALID,1004.68,VALID,0,VALID,86.8777,VALID,0,VALID,25.0469,VALID,353,VALID,0.766406,
2012-06-05, 00:17:04,VALID,1004.7,VALID,0,VALID,86.8853,VALID,0,VALID,25.0663,VALID,355,VALID,0.235547,
2012-06-05, 00:18:04,VALID,1004.71,VALID,0,VALID,86.6946,VALID,0,VALID,25.0255,VALID,355,VALID,0.25625,
2012-06-05, 00:19:04,VALID,1004.67,VALID,0,VALID,86.8548,VALID,0,VALID,25.0041,VALID,358,VALID,0.567578,
2012-06-05, 00:20:04,VALID,1004.66,VALID,0,VALID,87.0455,VALID,0,VALID,25.0469,VALID,323,VALID,0.347656,
2012-06-05, 00:21:04,VALID,1004.65,VALID,0,VALID,86.8929,VALID,0,VALID,25.006,VALID,355,VALID,0.942969,
2012-06-05, 00:22:04,VALID,1004.67,VALID,0,VALID,87.0455,VALID,0,VALID,24.9866,VALID,335,VALID,0.496094,
2012-06-05, 00:23:04,VALID,1004.64,VALID,0,VALID,86.9845,VALID,0,VALID,24.9866,VALID,330,VALID,0.548047,
2012-06-05, 00:24:04,VALID,1004.62,VALID,0,VALID,86.5725,VALID,0,VALID,24.969,VALID,5,VALID,1.20859,
2012-06-05, 00:25:04,VALID,1004.64,VALID,0,VALID,86.9921,VALID,0,VALID,24.9671,VALID,3,VALID,0.571484,
2012-06-05, 00:26:04,VALID,1004.6,VALID,0,VALID,87.1371,VALID,0,VALID,24.969,VALID,359,VALID,0.542578,
2012-06-05, 00:27:04,VALID,1004.64,VALID,0,VALID,87.015,VALID,0,VALID,24.93,VALID,346,VALID,0.780469,
2012-06-05, 00:28:04,VALID,1004.63,VALID,0,VALID,87.015,VALID,0,VALID,24.93,VALID,346,VALID,0.496875,
2012-06-05, 00:29:04,VALID,1004.66,VALID,0,VALID,86.8243,VALID,0,VALID,24.8892,VALID,338,VALID,0.610547,
2012-06-05, 00:30:04,VALID,1004.64,VALID,0,VALID,86.8929,VALID,0,VALID,24.8911,VALID,346,VALID,1.05234,
2012-06-05, 00:31:04,VALID,1004.65,VALID,0,VALID,86.748,VALID,0,VALID,24.8892,VALID,346,VALID,0.811328,
2012-06-05, 00:32:04,VALID,1004.63,VALID,0,VALID,86.481,VALID,0,VALID,24.8911,VALID,351,VALID,1.50508,
2012-06-05, 00:33:04,VALID,1004.64,VALID,0,VALID,86.6717,VALID,0,VALID,24.9106,VALID,324,VALID,0.851563,
2012-06-05, 00:34:04,VALID,1004.61,VALID,0,VALID,86.687,VALID,0,VALID,24.8911,VALID,349,VALID,0.900781,
2012-06-05, 00:35:04,VALID,1004.62,VALID,0,VALID,86.5802,VALID,0,VALID,24.8911,VALID,346,VALID,1.35586,
2012-06-05, 00:36:04,VALID,1004.56,VALID,0,VALID,86.6488,VALID,0,VALID,24.9125,VALID,358,VALID,1.21523,
2012-06-05, 00:37:04,VALID,1004.52,VALID,0,VALID,86.4581,VALID,0,VALID,24.8911,VALID,348,VALID,1.40234,
2012-06-05, 00:38:04,VALID,1004.5,VALID,0,VALID,86.3818,VALID,0,VALID,24.8892,VALID,346,VALID,1.57734,
2012-06-05, 00:39:04,VALID,1004.51,VALID,0,VALID,86.3818,VALID,0,VALID,24.9106,VALID,353,VALID,1.70664,
2012-06-05, 00:40:04,VALID,1004.44,VALID,0,VALID,86.6793,VALID,0,VALID,24.9106,VALID,356,VALID,0.971484,
2012-06-05, 00:41:04,VALID,1004.41,VALID,0,VALID,86.8014,VALID,0,VALID,24.9106,VALID,4,VALID,0.767578,
2012-06-05, 00:42:04,VALID,1004.36,VALID,0,VALID,86.9235,VALID,0,VALID,24.893,VALID,359,VALID,1.07109,
2012-06-05, 00:43:04,VALID,1004.34,VALID,0,VALID,87.2668,VALID,0,VALID,24.8716,VALID,359,VALID,0.694922,
2012-06-05, 00:44:04,VALID,1004.33,VALID,0,VALID,87.1828,VALID,0,VALID,24.8327,VALID,342,VALID,1.34219,
2012-06-05, 00:45:04,VALID,1004.3,VALID,0,VALID,87.2591,VALID,0,VALID,24.8327,VALID,321,VALID,0.614844,
2012-06-05, 00:46:04,VALID,1004.3,VALID,0,VALID,87.488,VALID,0,VALID,24.8113,VALID,353,VALID,0.966797,
2012-06-05, 00:47:04,VALID,1004.27,VALID,0,VALID,87.5185,VALID,0,VALID,24.7724,VALID,5,VALID,1.17227,
2012-06-05, 00:48:04,VALID,1004.25,VALID,0,VALID,87.7245,VALID,0,VALID,24.7743,VALID,348,VALID,1.03789,
2012-06-05, 00:49:04,VALID,1004.24,VALID,0,VALID,87.9457,VALID,0,VALID,24.7548,VALID,358,VALID,0.861719,
2012-06-05, 00:50:04,VALID,1004.21,VALID,0,VALID,88.0296,VALID,0,VALID,24.7159,VALID,329,VALID,0.671484,
2012-06-05, 00:51:04,VALID,1004.21,VALID,0,VALID,88.1288,VALID,0,VALID,24.6556,VALID,358,VALID,0.974609,
2012-06-05, 00:52:04,VALID,1004.16,VALID,0,VALID,88.0296,VALID,0,VALID,24.6983,VALID,349,VALID,1.03437,
2012-06-05, 00:53:04,VALID,1004.15,VALID,0,VALID,88.167,VALID,0,VALID,24.6574,VALID,357,VALID,0.870703,
2012-06-05, 00:54:04,VALID,1004.12,VALID,0,VALID,88.4874,VALID,0,VALID,24.638,VALID,356,VALID,0.850391,
2012-06-05, 00:55:04,VALID,1004.09,VALID,0,VALID,88.6323,VALID,0.0815089,VALID,24.5972,VALID,338,VALID,1.21055,
2012-06-05, 00:56:04,VALID,1004.06,VALID,0,VALID,88.8841,VALID,0,VALID,24.599,VALID,344,VALID,1.18672,
2012-06-05, 00:57:04,VALID,1004.05,VALID,0,VALID,88.7468,VALID,0.0815089,VALID,24.5582,VALID,345,VALID,1.29648,
2012-06-05, 00:58:04,VALID,1004.05,VALID,0,VALID,88.8841,VALID,0,VALID,24.5796,VALID,351,VALID,1.02188,
2012-06-05, 00:59:04,VALID,1004,VALID,0,VALID,88.8307,VALID,0,VALID,24.5601,VALID,347,VALID,0.725781,
2012-06-05, 01:00:04,VALID,1004,VALID,0,VALID,89.0214,VALID,0,VALID,24.5406,VALID,353,VALID,0.927734,
2012-06-05, 01:01:04,VALID,1003.97,VALID,0,VALID,89.0977,VALID,0,VALID,24.5193,VALID,353,VALID,1.02109,
2012-06-05, 01:02:04,VALID,1003.91,VALID,0,VALID,89.1435,VALID,0,VALID,24.5193,VALID,2,VALID,1.21875,
2012-06-05, 01:03:04,VALID,1003.91,VALID,0,VALID,88.8154,VALID,0,VALID,24.5212,VALID,350,VALID,1.42188,
2012-06-05, 01:04:04,VALID,1003.91,VALID,0,VALID,88.7544,VALID,0,VALID,24.5193,VALID,351,VALID,1.63516,
2012-06-05, 01:05:04,VALID,1003.9,VALID,0,VALID,88.8765,VALID,0,VALID,24.562,VALID,347,VALID,1.39688,
2012-06-05, 01:06:04,VALID,1003.86,VALID,0,VALID,88.8612,VALID,0,VALID,24.5193,VALID,356,VALID,0.963672,
2012-06-05, 01:07:04,VALID,1003.85,VALID,0,VALID,88.9222,VALID,0,VALID,24.5601,VALID,338,VALID,0.5625,
2012-06-05, 01:08:04,VALID,1003.86,VALID,0,VALID,89.0061,VALID,0,VALID,24.5406,VALID,10,VALID,0.809766,
2012-06-05, 01:09:04,VALID,1003.79,VALID,0,VALID,88.5255,VALID,0,VALID,24.5212,VALID,353,VALID,1.4832,
2012-06-05, 01:10:04,VALID,1003.81,VALID,0,VALID,88.3424,VALID,0,VALID,24.5601,VALID,3,VALID,1.46406,
2012-06-05, 01:11:04,VALID,1003.76,VALID,0,VALID,87.9,VALID,0.0815089,VALID,24.5796,VALID,347,VALID,1.66875,
2012-06-05, 01:12:04,VALID,1003.74,VALID,0,VALID,87.7245,VALID,0,VALID,24.5972,VALID,349,VALID,1.21445,
2012-06-05, 01:13:04,VALID,1003.73,VALID,0,VALID,87.7703,VALID,0,VALID,24.638,VALID,340,VALID,1.0293,
2012-06-05, 01:14:04,VALID,1003.72,VALID,0,VALID,87.6101,VALID,0,VALID,24.6166,VALID,350,VALID,1.18242,
2012-06-05, 01:15:04,VALID,1003.7,VALID,0,VALID,87.6787,VALID,0,VALID,24.6574,VALID,333,VALID,1.01016,
2012-06-05, 01:16:04,VALID,1003.67,VALID,0,VALID,87.9152,VALID,0,VALID,24.6185,VALID,351,VALID,0.719922,
2012-06-05, 01:17:04,VALID,1003.65,VALID,0,VALID,88.0678,VALID,0,VALID,24.6166,VALID,343,VALID,1.02383,
2012-06-05, 01:18:04,VALID,1003.62,VALID,0,VALID,88.1593,VALID,0,VALID,24.6185,VALID,5,VALID,1.08398,
2012-06-05, 01:19:04,VALID,1003.61,VALID,0,VALID,88.3501,VALID,0,VALID,24.599,VALID,348,VALID,1.09414,
2012-06-05, 01:20:04,VALID,1003.63,VALID,0,VALID,88.2204,VALID,0,VALID,24.5582,VALID,354,VALID,1.02578,
2012-06-05, 01:21:04,VALID,1003.59,VALID,0,VALID,88.5103,VALID,0.0815089,VALID,24.5796,VALID,355,VALID,0.856641,
2012-06-05, 01:22:04,VALID,1003.58,VALID,0,VALID,88.4569,VALID,0,VALID,24.5601,VALID,351,VALID,0.991797,
2012-06-05, 01:23:04,VALID,1003.56,VALID,0,VALID,88.3195,VALID,0.0815089,VALID,24.5601,VALID,332,VALID,1.11406,
2012-06-05, 01:24:04,VALID,1003.5,VALID,0,VALID,88.5179,VALID,0,VALID,24.5601,VALID,353,VALID,0.617188,
2012-06-05, 01:25:04,VALID,1003.5,VALID,0,VALID,88.7315,VALID,0,VALID,24.5601,VALID,1,VALID,0.652344,
2012-06-05, 01:26:04,VALID,1003.49,VALID,0,VALID,88.8841,VALID,0,VALID,24.5193,VALID,360,VALID,0.40625,
2012-06-05, 01:27:04,VALID,1003.45,VALID,0,VALID,89.0824,VALID,0,VALID,24.5212,VALID,342,VALID,0.876953,
2012-06-05, 01:28:04,VALID,1003.44,VALID,0,VALID,89.2198,VALID,0,VALID,24.4804,VALID,341,VALID,0.968359,
2012-06-05, 01:29:04,VALID,1003.4,VALID,0,VALID,89.2426,VALID,0,VALID,24.5212,VALID,348,VALID,0.872656,
2012-06-05, 01:30:04,VALID,1003.41,VALID,0,VALID,89.1969,VALID,0,VALID,24.5212,VALID,346,VALID,1.50547,
2012-06-05, 01:31:04,VALID,1003.39,VALID,0.5,VALID,89.2732,VALID,0,VALID,24.5406,VALID,346,VALID,1.11484,
2012-06-05, 01:32:04,VALID,1003.37,VALID,0,VALID,89.4944,VALID,0,VALID,24.5212,VALID,338,VALID,0.3875,
2012-06-05, 01:33:04,VALID,1003.35,VALID,0,VALID,89.6317,VALID,0,VALID,24.5212,VALID,346,VALID,0.710547,
2012-06-05, 01:34:04,VALID,1003.36,VALID,0,VALID,89.8987,VALID,0,VALID,24.4822,VALID,349,VALID,0.674609,
2012-06-05, 01:35:04,VALID,1003.37,VALID,0,VALID,90.1734,VALID,0,VALID,24.4628,VALID,349,VALID,0.833594,
2012-06-05, 01:36:04,VALID,1003.36,VALID,0,VALID,90.3641,VALID,0,VALID,24.4238,VALID,341,VALID,0.564844,
2012-06-05, 01:37:04,VALID,1003.33,VALID,0,VALID,90.5624,VALID,0,VALID,24.4238,VALID,353,VALID,0.708594,
2012-06-05, 01:38:04,VALID,1003.37,VALID,0,VALID,90.6158,VALID,0,VALID,24.3636,VALID,349,VALID,0.844922,
2012-06-05, 01:39:04,VALID,1003.39,VALID,0,VALID,90.8371,VALID,0,VALID,24.3636,VALID,348,VALID,0.523047,
2012-06-05, 01:40:04,VALID,1003.39,VALID,0,VALID,90.982,VALID,0,VALID,24.3441,VALID,334,VALID,0.570313,
2012-06-05, 01:41:04,VALID,1003.42,VALID,0,VALID,91.1804,VALID,0,VALID,24.3459,VALID,352,VALID,0.760156,
2012-06-05, 01:42:04,VALID,1003.45,VALID,0,VALID,91.1575,VALID,0,VALID,24.3052,VALID,344,VALID,1.07617,
2012-06-05, 01:43:04,VALID,1003.47,VALID,0,VALID,91.1804,VALID,0.0815089,VALID,24.3265,VALID,348,VALID,0.802344,
2012-06-05, 01:44:04,VALID,1003.47,VALID,0,VALID,91.2567,VALID,0,VALID,24.307,VALID,322,VALID,0.813672,
2012-06-05, 01:45:04,VALID,1003.5,VALID,0,VALID,91.3635,VALID,0,VALID,24.2857,VALID,344,VALID,0.701563,
2012-06-05, 01:46:04,VALID,1003.52,VALID,0.5,VALID,91.4855,VALID,0,VALID,24.2857,VALID,346,VALID,0.796094,
2012-06-05, 01:47:04,VALID,1003.53,VALID,0,VALID,91.5771,VALID,0,VALID,24.307,VALID,3,VALID,0.599219,
2012-06-05, 01:48:04,VALID,1003.53,VALID,0,VALID,91.6152,VALID,0,VALID,24.307,VALID,359,VALID,0.877734,
2012-06-05, 01:49:04,VALID,1003.55,VALID,0,VALID,91.6,VALID,0,VALID,24.3459,VALID,2,VALID,0.662109,
2012-06-05, 01:50:04,VALID,1003.57,VALID,0,VALID,91.5847,VALID,0,VALID,24.3265,VALID,360,VALID,0.827734,
2012-06-05, 01:51:04,VALID,1003.57,VALID,0,VALID,91.4245,VALID,0,VALID,24.3052,VALID,357,VALID,1.06953,
2012-06-05, 01:52:04,VALID,1003.62,VALID,0,VALID,91.4703,VALID,0,VALID,24.3459,VALID,348,VALID,0.665625,
2012-06-05, 01:53:04,VALID,1003.6,VALID,0,VALID,91.5771,VALID,0,VALID,24.3459,VALID,347,VALID,0.353125,
2012-06-05, 01:54:04,VALID,1003.62,VALID,0,VALID,91.7831,VALID,0,VALID,24.3265,VALID,4,VALID,0.275391,
2012-06-05, 01:55:04,VALID,1003.59,VALID,0,VALID,91.8899,VALID,0,VALID,24.2857,VALID,5,VALID,0.569922,
2012-06-05, 01:56:04,VALID,1003.63,VALID,0,VALID,92.0119,VALID,0,VALID,24.2875,VALID,5,VALID,0.322656,
2012-06-05, 01:57:04,VALID,1003.63,VALID,0,VALID,92.0501,VALID,0,VALID,24.2486,VALID,20,VALID,0.542578,
2012-06-05, 01:58:04,VALID,1003.62,VALID,0,VALID,92.1721,VALID,0,VALID,24.2486,VALID,360,VALID,0.465625,
2012-06-05, 01:59:04,VALID,1003.57,VALID,0,VALID,92.2484,VALID,0,VALID,24.2291,VALID,359,VALID,0.528906,
2012-06-05, 02:00:04,VALID,1003.58,VALID,0,VALID,92.3095,VALID,0,VALID,24.1884,VALID,358,VALID,0.383203,
2012-06-05, 02:01:04,VALID,1003.55,VALID,0.5,VALID,92.4086,VALID,0,VALID,24.1884,VALID,343,VALID,0.707422,
2012-06-05, 02:02:04,VALID,1003.52,VALID,0,VALID,92.4773,VALID,0,VALID,24.1707,VALID,344,VALID,0.480859,
2012-06-05, 02:03:04,VALID,1003.51,VALID,0,VALID,92.5688,VALID,0,VALID,24.1689,VALID,356,VALID,0.542188,
2012-06-05, 02:04:04,VALID,1003.51,VALID,0,VALID,92.6222,VALID,0,VALID,24.1707,VALID,352,VALID,0.688281,
2012-06-05, 02:05:04,VALID,1003.48,VALID,0,VALID,92.668,VALID,0,VALID,24.1513,VALID,351,VALID,0.382422,
2012-06-05, 02:06:04,VALID,1003.49,VALID,0,VALID,92.7443,VALID,0,VALID,24.1318,VALID,351,VALID,0.430078,
2012-06-05, 02:07:04,VALID,1003.48,VALID,0,VALID,92.8358,VALID,0,VALID,24.1318,VALID,350,VALID,0.280859,
2012-06-05, 02:08:04,VALID,1003.46,VALID,0,VALID,92.9274,VALID,0,VALID,24.1318,VALID,351,VALID,0.575391,
2012-06-05, 02:09:04,VALID,1003.44,VALID,0,VALID,92.9274,VALID,0,VALID,24.1123,VALID,352,VALID,0.351172,
2012-06-05, 02:10:04,VALID,1003.45,VALID,0,VALID,93.0113,VALID,0,VALID,24.091,VALID,351,VALID,0.274609,
2012-06-05, 02:11:04,VALID,1003.41,VALID,0,VALID,93.1257,VALID,0,VALID,24.0929,VALID,343,VALID,0.389062,
2012-06-05, 02:12:04,VALID,1003.41,VALID,0.5,VALID,93.1029,VALID,0,VALID,24.1123,VALID,354,VALID,0.636719,
2012-06-05, 02:13:04,VALID,1003.37,VALID,0,VALID,93.1334,VALID,0,VALID,24.0716,VALID,359,VALID,0.335547,
2012-06-05, 02:14:04,VALID,1003.34,VALID,0,VALID,93.1715,VALID,0,VALID,24.0734,VALID,357,VALID,0.4125,
2012-06-05, 02:15:04,VALID,1003.31,VALID,0,VALID,93.1791,VALID,0,VALID,24.0521,VALID,356,VALID,0.382031,
2012-06-05, 02:16:04,VALID,1003.3,VALID,0,VALID,93.1868,VALID,0,VALID,24.0734,VALID,356,VALID,0.539063,
2012-06-05, 02:17:04,VALID,1003.31,VALID,0,VALID,93.2097,VALID,0,VALID,24.0539,VALID,355,VALID,0.337109,
2012-06-05, 02:18:04,VALID,1003.26,VALID,0,VALID,93.1944,VALID,0,VALID,24.0539,VALID,355,VALID,0.905469,
2012-06-05, 02:19:04,VALID,1003.25,VALID,0,VALID,93.2402,VALID,0,VALID,24.0521,VALID,351,VALID,0.709375,
2012-06-05, 02:20:04,VALID,1003.23,VALID,0.5,VALID,93.2554,VALID,0,VALID,24.0521,VALID,350,VALID,0.323438,
2012-06-05, 02:21:04,VALID,1003.23,VALID,0,VALID,93.2859,VALID,0,VALID,24.0539,VALID,350,VALID,0.923437,
2012-06-05, 02:22:04,VALID,1003.23,VALID,0,VALID,93.3165,VALID,0,VALID,24.0326,VALID,351,VALID,0.674219,
2012-06-05, 02:23:04,VALID,1003.2,VALID,0,VALID,93.3928,VALID,0,VALID,24.0539,VALID,351,VALID,0.515234,
2012-06-05, 02:24:04,VALID,1003.17,VALID,0,VALID,93.4385,VALID,0,VALID,24.0752,VALID,349,VALID,0.789844,
2012-06-05, 02:25:04,VALID,1003.16,VALID,0,VALID,93.4996,VALID,0,VALID,24.0539,VALID,334,VALID,0.682813,
2012-06-05, 02:26:04,VALID,1003.16,VALID,0,VALID,93.5301,VALID,0,VALID,24.0326,VALID,344,VALID,0.771484,
2012-06-05, 02:27:04,VALID,1003.14,VALID,0,VALID,93.5835,VALID,0,VALID,24.0326,VALID,348,VALID,0.689453,
2012-06-05, 02:28:04,VALID,1003.12,VALID,0.5,VALID,93.6064,VALID,0,VALID,24.0539,VALID,345,VALID,0.544922,
2012-06-05, 02:29:04,VALID,1003.12,VALID,0,VALID,93.6598,VALID,0.0815089,VALID,24.0326,VALID,351,VALID,0.711328,
2012-06-05, 02:30:04,VALID,1003.08,VALID,0,VALID,93.6979,VALID,0,VALID,24.0345,VALID,358,VALID,0.961719,
2012-06-05, 02:31:04,VALID,1003.06,VALID,0,VALID,93.7437,VALID,0,VALID,23.9937,VALID,357,VALID,0.369141,
2012-06-05, 02:32:04,VALID,1003.06,VALID,0,VALID,93.7895,VALID,0,VALID,24.0345,VALID,337,VALID,0.6,
2012-06-05, 02:33:04,VALID,1003.03,VALID,0,VALID,93.8123,VALID,0,VALID,24.0132,VALID,360,VALID,0.619922,
2012-06-05, 02:34:04,VALID,1003.01,VALID,0,VALID,93.8276,VALID,0,VALID,24.0345,VALID,343,VALID,0.241797,
2012-06-05, 02:35:04,VALID,1002.99,VALID,0,VALID,93.8657,VALID,0,VALID,24.0132,VALID,343,VALID,0,
2012-06-05, 02:36:04,VALID,1002.99,VALID,0,VALID,93.8734,VALID,0,VALID,24.0345,VALID,11,VALID,0.440625,
2012-06-05, 02:37:04,VALID,1002.94,VALID,0,VALID,93.9039,VALID,0,VALID,24.0132,VALID,11,VALID,0,
2012-06-05, 02:38:04,VALID,1002.94,VALID,0.5,VALID,93.9268,VALID,0,VALID,24.0539,VALID,11,VALID,0,
2012-06-05, 02:39:04,VALID,1002.93,VALID,0,VALID,93.942,VALID,0,VALID,24.0326,VALID,11,VALID,0,
2012-06-05, 02:40:04,VALID,1002.94,VALID,0,VALID,93.9649,VALID,0,VALID,24.0326,VALID,350,VALID,0.326172,
2012-06-05, 02:41:04,VALID,1002.94,VALID,0,VALID,93.9649,VALID,0.0815089,VALID,24.0734,VALID,350,VALID,0,
2012-06-05, 02:42:04,VALID,1002.91,VALID,0,VALID,93.9725,VALID,0,VALID,24.0521,VALID,350,VALID,0,
2012-06-05, 02:43:04,VALID,1002.9,VALID,0,VALID,93.9878,VALID,0,VALID,24.0539,VALID,350,VALID,0,
2012-06-05, 02:44:04,VALID,1002.9,VALID,0,VALID,93.9725,VALID,0,VALID,24.0539,VALID,350,VALID,0,
2012-06-05, 02:45:04,VALID,1002.88,VALID,0,VALID,94.0031,VALID,0,VALID,24.0539,VALID,350,VALID,0,
2012-06-05, 02:46:04,VALID,1002.87,VALID,0,VALID,94.0183,VALID,0,VALID,24.0326,VALID,350,VALID,0,
2012-06-05, 02:47:04,VALID,1002.86,VALID,0,VALID,94.0488,VALID,0.0815089,VALID,24.0326,VALID,330,VALID,0.43125,
2012-06-05, 02:48:04,VALID,1002.8,VALID,0,VALID,94.0259,VALID,0.0815089,VALID,24.0521,VALID,305,VALID,0.182422,
2012-06-05, 02:49:04,VALID,1002.85,VALID,0,VALID,94.0336,VALID,0.0815089,VALID,24.0326,VALID,304,VALID,0.545703,
2012-06-05, 02:50:04,VALID,1002.79,VALID,0,VALID,94.0412,VALID,0.0815089,VALID,24.0539,VALID,302,VALID,0.399219,
2012-06-05, 02:51:04,VALID,1002.78,VALID,0,VALID,94.0336,VALID,0,VALID,24.0539,VALID,299,VALID,0.388672,
2012-06-05, 02:52:04,VALID,1002.75,VALID,0,VALID,94.0565,VALID,0,VALID,24.0539,VALID,299,VALID,0.307422,
2012-06-05, 02:53:04,VALID,1002.72,VALID,0.5,VALID,94.0488,VALID,0.0815089,VALID,24.0326,VALID,297,VALID,0.448438,
2012-06-05, 02:54:04,VALID,1002.73,VALID,0,VALID,94.0183,VALID,0,VALID,24.0132,VALID,295,VALID,0.341016,
2012-06-05, 02:55:04,VALID,1002.69,VALID,0,VALID,94.0336,VALID,0,VALID,23.9937,VALID,297,VALID,0.442969,
2012-06-05, 02:56:04,VALID,1002.69,VALID,0,VALID,94.0412,VALID,0,VALID,23.9937,VALID,297,VALID,0,
2012-06-05, 02:57:04,VALID,1002.67,VALID,0,VALID,94.0641,VALID,0,VALID,24.0345,VALID,297,VALID,0,
2012-06-05, 02:58:04,VALID,1002.66,VALID,0,VALID,94.0565,VALID,0,VALID,23.9937,VALID,324,VALID,0,
2012-06-05, 02:59:04,VALID,1002.67,VALID,0,VALID,94.0641,VALID,0,VALID,23.9937,VALID,324,VALID,0.358984,
2012-06-05, 03:00:04,VALID,1002.65,VALID,0,VALID,94.0565,VALID,0,VALID,23.9937,VALID,345,VALID,0.38125,
2012-06-05, 03:01:04,VALID,1002.64,VALID,0,VALID,94.0946,VALID,0,VALID,24.015,VALID,345,VALID,0.248047,
2012-06-05, 03:02:04,VALID,1002.64,VALID,0,VALID,94.0946,VALID,0,VALID,23.9937,VALID,345,VALID,0.25625,
2012-06-05, 03:03:04,VALID,1002.63,VALID,0,VALID,94.0717,VALID,0,VALID,23.9742,VALID,346,VALID,0.360547,
2012-06-05, 03:04:04,VALID,1002.63,VALID,0,VALID,94.1022,VALID,0,VALID,23.9761,VALID,346,VALID,0.312891,
2012-06-05, 03:05:04,VALID,1002.65,VALID,0,VALID,94.1404,VALID,0.0815089,VALID,23.9937,VALID,346,VALID,0.161719,
2012-06-05, 03:06:04,VALID,1002.61,VALID,0,VALID,94.148,VALID,0.0815089,VALID,23.9955,VALID,346,VALID,0.174609,
2012-06-05, 03:07:04,VALID,1002.63,VALID,0,VALID,94.1404,VALID,0,VALID,23.9937,VALID,353,VALID,0.598437,
2012-06-05, 03:08:04,VALID,1002.63,VALID,0,VALID,94.1404,VALID,0.0815089,VALID,23.9742,VALID,340,VALID,0.517187,
2012-06-05, 03:09:04,VALID,1002.63,VALID,0,VALID,94.1328,VALID,0,VALID,23.9955,VALID,7,VALID,0.415625,
2012-06-05, 03:10:04,VALID,1002.67,VALID,0,VALID,94.1175,VALID,0,VALID,23.9742,VALID,340,VALID,0.637891,
2012-06-05, 03:11:04,VALID,1002.66,VALID,0,VALID,94.0794,VALID,0,VALID,23.9548,VALID,345,VALID,0.459375,
2012-06-05, 03:12:04,VALID,1002.66,VALID,0,VALID,94.0488,VALID,0.0815089,VALID,23.9742,VALID,345,VALID,0.616406,
2012-06-05, 03:13:04,VALID,1002.71,VALID,0,VALID,93.9954,VALID,0.0815089,VALID,23.9761,VALID,336,VALID,0.527734,
2012-06-05, 03:14:04,VALID,1002.73,VALID,0,VALID,93.9878,VALID,0,VALID,23.9742,VALID,352,VALID,0.520312,
2012-06-05, 03:15:04,VALID,1002.73,VALID,0,VALID,93.9649,VALID,0,VALID,23.9742,VALID,344,VALID,0.5375,
2012-06-05, 03:16:04,VALID,1002.75,VALID,0,VALID,93.9344,VALID,0,VALID,24.015,VALID,354,VALID,0.761328,
2012-06-05, 03:17:04,VALID,1002.75,VALID,0,VALID,93.881,VALID,0,VALID,23.9742,VALID,360,VALID,0.581641,
2012-06-05, 03:18:04,VALID,1002.76,VALID,0,VALID,93.8581,VALID,0,VALID,23.9742,VALID,352,VALID,1.06523,
2012-06-05, 03:19:04,VALID,1002.75,VALID,0,VALID,93.7437,VALID,0,VALID,24.015,VALID,355,VALID,0.725781,
2012-06-05, 03:20:04,VALID,1002.77,VALID,0,VALID,93.6445,VALID,0,VALID,23.9937,VALID,349,VALID,1.06719,
2012-06-05, 03:21:04,VALID,1002.76,VALID,0,VALID,93.5377,VALID,0,VALID,24.015,VALID,325,VALID,0.696094,
2012-06-05, 03:22:04,VALID,1002.79,VALID,0,VALID,93.4462,VALID,0,VALID,24.0345,VALID,337,VALID,0.687109,
2012-06-05, 03:23:04,VALID,1002.79,VALID,0,VALID,93.4004,VALID,0,VALID,24.0539,VALID,353,VALID,0.808594,
2012-06-05, 03:24:04,VALID,1002.81,VALID,0,VALID,93.2936,VALID,0,VALID,24.0326,VALID,339,VALID,0.885156,
2012-06-05, 03:25:04,VALID,1002.81,VALID,0,VALID,93.2478,VALID,0,VALID,24.0734,VALID,2,VALID,0.929297,
2012-06-05, 03:26:04,VALID,1002.85,VALID,0,VALID,93.1486,VALID,0.0815089,VALID,24.0521,VALID,339,VALID,1.3582,
2012-06-05, 03:27:04,VALID,1002.84,VALID,0,VALID,93.08,VALID,0.0815089,VALID,24.0734,VALID,355,VALID,1.26328,
2012-06-05, 03:28:04,VALID,1002.82,VALID,0,VALID,93.0266,VALID,0,VALID,24.0929,VALID,301,VALID,0.351953,
2012-06-05, 03:29:04,VALID,1002.88,VALID,0,VALID,92.9961,VALID,0,VALID,24.0716,VALID,353,VALID,0.640625,
2012-06-05, 03:30:04,VALID,1002.88,VALID,0,VALID,93.0037,VALID,0,VALID,24.0929,VALID,351,VALID,0.553906,
2012-06-05, 03:31:04,VALID,1002.91,VALID,0,VALID,93.0342,VALID,0.0815089,VALID,24.0716,VALID,349,VALID,0.926172,
2012-06-05, 03:32:04,VALID,1002.92,VALID,0,VALID,93.0189,VALID,0.0815089,VALID,24.0521,VALID,347,VALID,0.75625,
2012-06-05, 03:33:04,VALID,1002.92,VALID,0,VALID,93.0342,VALID,0,VALID,24.0521,VALID,358,VALID,0.954687,
2012-06-05, 03:34:04,VALID,1002.95,VALID,0,VALID,92.9961,VALID,0,VALID,24.0521,VALID,358,VALID,1.06992,
2012-06-05, 03:35:04,VALID,1002.99,VALID,0,VALID,92.9732,VALID,0.0815089,VALID,24.0521,VALID,349,VALID,0.482422,
2012-06-05, 03:36:04,VALID,1003,VALID,0.5,VALID,92.9121,VALID,0.0815089,VALID,24.0716,VALID,355,VALID,0.852344,
2012-06-05, 03:37:04,VALID,1003.01,VALID,0,VALID,92.9426,VALID,0.0815089,VALID,24.0929,VALID,8,VALID,0.757422,
2012-06-05, 03:38:04,VALID,1003.02,VALID,0,VALID,92.9274,VALID,0.0815089,VALID,24.0929,VALID,358,VALID,0.712109,
2012-06-05, 03:39:04,VALID,1003.03,VALID,0,VALID,92.9198,VALID,0.0815089,VALID,24.0734,VALID,9,VALID,0.58125,
2012-06-05, 03:40:04,VALID,1003.05,VALID,0,VALID,92.9121,VALID,0,VALID,24.0929,VALID,341,VALID,0.885156,
2012-06-05, 03:41:04,VALID,1003.04,VALID,0,VALID,92.935,VALID,0.0815089,VALID,24.0716,VALID,4,VALID,0.712891,
2012-06-05, 03:42:04,VALID,1003.07,VALID,0,VALID,92.9579,VALID,0.0815089,VALID,24.0521,VALID,342,VALID,0.652344,
2012-06-05, 03:43:04,VALID,1003.11,VALID,0,VALID,92.935,VALID,0.0815089,VALID,24.0521,VALID,349,VALID,0.502344,